Deptford, New Jersey, United States
Lat: 39.83N, Lon: 75.13W
Wx Zone: NJZ017
Local Info
Past Weather Observations for Friday, February 5, 2016

NOTE: This archive is for the closest National Weather Service station to Deptford. Information may differ from the station used for current weather conditions.

Click here for Long-term Archive

Time Weather Temperature Dewpoint Humidity Pressure Winds Precip Visibility
23:54
Clear
36°F / 2°C 16°F / -9°C 44% 30.39 in
(1029 mb)
WNW 3.5 mph
(WNW 6 kph)
- 10SM
22:54
Clear
36°F / 2°C 16°F / -9°C 44% 30.36 in
(1028 mb)
NNW 4.6 mph
(NNW 7 kph)
- 10SM
21:54
Clear
36°F / 2°C 16°F / -9°C 44% 30.36 in
(1028 mb)
N 5.8 mph
(N 9 kph)
- 10SM
20:54
Clear
37°F / 3°C 16°F / -9°C 41% 30.36 in
(1028 mb)
NW 4.6 mph
(NW 7 kph)
- 10SM
19:54
Clear
37°F / 3°C 16°F / -9°C 41% 30.33 in
(1027 mb)
NNW 8.1 mph
(NNW 13 kph)
- 10SM
18:54
Clear
39°F / 4°C 16°F / -9°C 39% 30.33 in
(1027 mb)
NW 9.2 mph
(NW 15 kph)
- 10SM
17:54
Clear
41°F / 5°C 16°F / -9°C 36% 30.3 in
(1026 mb)
NW 12.7 mph
(NW 20 kph)
- 10SM
16:54
Partly Cloudy
43°F / 6°C 16°F / -9°C 34% 30.24 in
(1024 mb)
NW 20.7 mph
(NW 33 kph)
- 10SM
15:54
Mostly Cloudy
43°F / 6°C 19°F / -7°C 39% 30.21 in
(1023 mb)
NNW 17.3 mph
(NNW 28 kph)
- 10SM
14:54
Mostly Cloudy
43°F / 6°C 19°F / -7°C 39% 30.18 in
(1022 mb)
WNW 16.1 mph
(WNW 26 kph)
- 10SM
13:54
Mostly Cloudy
43°F / 6°C 19°F / -7°C 39% 30.18 in
(1022 mb)
NW 15 mph
(NW 24 kph)
- 10SM
12:54
Mostly Cloudy
43°F / 6°C 23°F / -5°C 46% 30.18 in
(1022 mb)
NW 17.3 mph
(NW 28 kph)
- 10SM
11:54
Partly Cloudy
43°F / 6°C 28°F / -2°C 57% 30.15 in
(1021 mb)
NNW 12.7 mph
(NNW 20 kph)
- 10SM
10:54
Mostly Cloudy
37°F / 3°C 28°F / -2°C 70% 30.18 in
(1022 mb)
NNW 4.6 mph
(NNW 7 kph)
- 10SM
09:54
Mostly Cloudy
37°F / 3°C 30°F / -1°C 75% 30.18 in
(1022 mb)
NE 9.2 mph
(NE 15 kph)
- 10SM
08:54
Overcast
36°F / 2°C 30°F / -1°C 81% 30.15 in
(1021 mb)
N 11.5 mph
(N 19 kph)
- 10SM
08:21
Overcast
Light Snow
36°F / 2°C 32°F / 0°C 87% 30.12 in
(1020 mb)
N 11.5 mph
(N 19 kph)
- 7SM
07:54
Overcast
Light Snow
34°F / 1°C 32°F / 0°C 93% 30.09 in
(1019 mb)
N 12.7 mph
(N 20 kph)
- 5SM
07:30
Overcast
Light Snow
34°F / 1°C 32°F / 0°C 93% 30.09 in
(1019 mb)
N 11.5 mph
(N 19 kph)
- 4SM
06:54
Overcast
Light Snow
N/A N/A N/A 30.12 in
(1020 mb)
NNE 17.3 mph
(NNE 28 kph)
- 2SM
06:32
Overcast
Light Snow
36°F / 2°C 32°F / 0°C 87% 30.12 in
(1020 mb)
N 12.7 mph
(N 20 kph)
- 2SM
05:54
Overcast
Light Snow
36°F / 2°C 32°F / 0°C 87% 30.09 in
(1019 mb)
N 8.1 mph
(N 13 kph)
- 1 1/2SM
05:50
Overcast
Light Snow
36°F / 2°C 32°F / 0°C 87% 30.09 in
(1019 mb)
NNE 11.5 mph
(NNE 19 kph)
- 1 1/2SM
05:42
Overcast
Light Snow
36°F / 2°C 32°F / 0°C 87% 30.09 in
(1019 mb)
NNE 11.5 mph
(NNE 19 kph)
- 3/4SM
05:28
Overcast
Light Snow
36°F / 2°C 32°F / 0°C 87% 30.09 in
(1019 mb)
N 9.2 mph
(N 15 kph)
- 1SM
04:54
Overcast
Light Snow
36°F / 2°C 32°F / 0°C 87% 30.09 in
(1019 mb)
N 8.1 mph
(N 13 kph)
- 2SM
04:49
Overcast
Light Snow
36°F / 2°C 32°F / 0°C 87% 30.09 in
(1019 mb)
N 9.2 mph
(N 15 kph)
- 2SM
04:23
Overcast
Light Snow
34°F / 1°C 32°F / 0°C 93% 30.09 in
(1019 mb)
NE 8.1 mph
(NE 13 kph)
- 2SM
03:54
Overcast
Light Snow
36°F / 2°C 32°F / 0°C 87% 30.09 in
(1019 mb)
N 9.2 mph
(N 15 kph)
- 2SM
03:40
Overcast
Snow
36°F / 2°C 32°F / 0°C 87% 30.06 in
(1018 mb)
NNE 9.2 mph
(NNE 15 kph)
- 2SM
03:15
Overcast
Fog And Mist
36°F / 2°C 34°F / 1°C 93% 30.06 in
(1018 mb)
NNE 9.2 mph
(NNE 15 kph)
- 4SM
02:54
Overcast
Fog And Mist
37°F / 3°C 32°F / 0°C 81% 30.09 in
(1019 mb)
NNE 16.1 mph
(NNE 26 kph)
- 5SM
02:50
Overcast
Fog And Mist
37°F / 3°C 32°F / 0°C 81% 30.09 in
(1019 mb)
NNE 15 mph
(NNE 24 kph)
- 5SM
02:36
Overcast
Rain
37°F / 3°C 34°F / 1°C 87% 30.06 in
(1018 mb)
NNE 10.4 mph
(NNE 17 kph)
- 5SM
01:54
Overcast
Light Rain
39°F / 4°C 34°F / 1°C 81% 30.06 in
(1018 mb)
NNE 9.2 mph
(NNE 15 kph)
- 5SM
01:35
Overcast
Light Rain
39°F / 4°C 32°F / 0°C 75% 30.06 in
(1018 mb)
NNE 11.5 mph
(NNE 19 kph)
- 5SM
01:07
Overcast
Light Rain
41°F / 5°C 34°F / 1°C 76% 30.04 in
(1017 mb)
NNE 13.8 mph
(NNE 22 kph)
- 7SM
00:54
Overcast
Light Rain
43°F / 6°C 32°F / 0°C 66% 30.06 in
(1018 mb)
NE 12.7 mph
(NE 20 kph)
- 10SM
Time Weather Temperature Dewpoint Humidity Pressure Winds Precip Visibility


Weather for websites

WeatherForYou.com, LLC is not responsible for any damages or problems caused by this service. Current weather conditions are obtained from the closest station including government and personal stations which may have varying degrees of accuracy. Weather forecasts are derived from the NOAA NDFD. Like all things, this site belongs to Jesus Christ... He just trusts us to maintain it. If you have any questions or comments email webmaster@weatherforyou.com

Copyright © 2016, WeatherForYou.com LLC. All rights reserved.